Regional Weather Roundup
Issued by NWS

Home | Current Version | Previous Version | Text Only | Print | Product List | Glossary On
Versions: 1 2 3 4 5 6 7 8 9 10 11 12 13 14 15 16 17 18 19 20 21 22 23 24 25 26 27 28 29 30 31 32 33 34 35 36 37 38 39 40 41 42 43 44 45 46 47 48 49 50
000
ASUS43 KBIS 011910
RWRND

NORTH DAKOTA REGIONAL WEATHER ROUNDUP
NATIONAL WEATHER SERVICE BISMARCK ND
200 PM CDT WED JUL 01 2015

NOTE: "FAIR" INDICATES FEW OR NO CLOUDS BELOW 12,000 FEET WITH NO
SIGNIFICANT WEATHER AND/OR OBSTRUCTIONS TO VISIBILITY.


NDZ001>003-009>011-017-012000-
NORTHWEST NORTH DAKOTA

CITY           SKY/WX    TMP DP  RH WIND       PRES   REMARKS
WILLISTON      PTSUNNY   75  58  55 N9        29.99S
MINOT          CLOUDY    70  61  73 CALM      29.96S
MINOT AFB      PTSUNNY   68  68 100 CALM      29.96S
$$

NDZ018>021-031>035-040>046-012000-
SOUTHWEST NORTH DAKOTA

CITY           SKY/WX    TMP DP  RH WIND       PRES   REMARKS
BISMARCK       MOSUNNY   76  61  59 CALM      29.96S
DICKINSON      CLOUDY    69  60  73 CALM      30.00S
GARRISON         N/A     74  64  71 VRB5      29.97S
HETTINGER ARPT CLOUDY    71  62  73 NE5       30.01F
$$

NDZ004>008-012>016-024-026-027-054-012000-
NORTHEAST NORTH DAKOTA

CITY           SKY/WX    TMP DP  RH WIND       PRES   REMARKS
GRAND FORKS    MOSUNNY   77  58  51 CALM      29.93F
GRND FRKS AFB  MOSUNNY   77  60  56 VRB6      29.95S
DEVILS LAKE    SUNNY     73  57  56 SE7       29.94F
$$

NDZ022-023-025-028>030-036>039-047>053-012000-
SOUTHEAST NORTH DAKOTA

CITY           SKY/WX    TMP DP  RH WIND       PRES   REMARKS
FARGO          PTSUNNY   75  61  61 S8        29.96S
JAMESTOWN      PTSUNNY   73  60  63 S7        29.96R
$$



USA.gov is the U.S. government's official web portal to all federal, state and local government web resources and services.